Regional Weather Roundup
Issued by NWS Cleveland, OH

Home | Current Version | Previous Version | Graphics & Text | Print | Product List | Glossary On
Versions: 1 2 3 4 5 6 7 8 9 10 11 12 13 14 15 16 17 18 19 20 21 22 23 24 25 26 27 28 29 30 31 32 33 34 35 36 37 38 39 40 41 42 43 44 45 46 47 48 49 50
000
ASUS41 KCLE 020700
RWRCLE
OHIO REGIONAL WEATHER ROUNDUP
NATIONAL WEATHER SERVICE WILMINGTON, OH
300 AM EDT TUE JUN 02 2015

NOTE: "FAIR" INDICATES FEW OR NO CLOUDS BELOW 12,000 FEET WITH NO
SIGNIFICANT WEATHER AND/OR OBSTRUCTIONS TO VISIBILITY.

OHZ001>008-015>018-024>027-034-035-043-044-020800-
   NORTHWEST OHIO

CITY           SKY/WX    TMP DP  RH WIND       PRES   REMARKS
DEFIANCE       CLEAR     48  44  86 N5        30.18F
FINDLAY        PTCLDY    51  47  86 N5        30.15F
TOLEDO EXPRESS CLEAR     47  41  80 NE3       30.18F
TOLEDO EXEC    PTCLDY    53  45  74 N6        30.18F
LIMA           PTCLDY    47  46  97 NE6       30.15F
$$

OHZ009>014-019>023-028>033-038-089-020800-
   NORTHEAST OHIO

CITY           SKY/WX    TMP DP  RH WIND       PRES   REMARKS
CLE-HOPKINS    CLOUDY    52  49  89 NE9       30.17F
CLE-LAKEFRONT  CLOUDY    54  49  83 NE10      30.15F
CUY CO. ARPT   NOT AVBL
LORAIN-ELYRIA  CLOUDY    50  47  89 NE5       30.17F
ASHTABULA      CLOUDY    50  49  96 VRB3      30.17S
AKRON-CANTON   CLOUDY    52  47  83 NE7       30.13F
WOOSTER        NOT AVBL
MANSFIELD      CLOUDY    49  48  97 N8        30.15F FOG
YOUNGSTOWN     CLOUDY    50  48  93 N7        30.14F
$$

OHZ042-051>053-060>062-070>072-077>081-020800-
  SOUTHWEST OHIO

CITY           SKY/WX    TMP DP  RH WIND       PRES   REMARKS
CINC-COVINGTON CLOUDY    54  49  83 NE8       30.12F
CINC-LUNKEN    CLOUDY    54  49  83 N7        30.13F
HAMILTON       CLOUDY    54  48  80 E7        30.14F
DAYTON         NOT AVBL
WRIGHT-PAT AFB CLEAR     50  48  91 N5        30.13F
DAYTON GENERAL MOCLDY    49  47  93 N6        30.13S
WILMINGTON     CLOUDY    51  47  86 NE7       30.12F
$$

OHZ036-037-039>041-045>050-054>059-063>069-073>076-082>088-020800-
  CENTRAL AND SOUTHEAST OHIO

CITY           SKY/WX    TMP DP  RH WIND       PRES   REMARKS
COLUMBUS       CLOUDY    52  48  86 NE3       30.12F
OSU AIRPORT    CLOUDY    51  48  89 N5        30.13S
BOLTON FIELD   NOT AVBL
RICKENBACK AFB NOT AVBL
NEWARK         CLOUDY    53  48  83 VRB5      30.12F
MARION         CLOUDY    48  46  93 N6        30.14F FOG
LANCASTER      CLOUDY    53  48  83 NE5       30.12S
ZANESVILLE     CLOUDY    51  47  86 N3        30.12F
NEW PHILLY     CLOUDY    54  49  83 N3        30.13F
$$


USA.gov is the U.S. government's official web portal to all federal, state and local government web resources and services.